Location: *
(53.4003°S, 165.3236°W)
Time: 02:13:21
(UTC+00:00)

USA 32 - Pass Details

Date: 11 December 2023
Orbit: 778 x 780 km, 85.0° (Epoch: 07 February)

Event Time Altitude Azimuth Distance (km) Brightness Sun altitude
Exits shadow 13:08:17 - 356° (N) 2,605 6.2 -8.3°
Reaches altitude 10° 13:08:57 10° 356° (N) 2,344 6.0 -8.2°
Maximum altitude 13:14:14 87° 83° (E) 800 4.1 -7.8°
Drops below altitude 10° 13:19:35 10° 172° (S) 2,375 7.7 -7.4°
Sets 13:21:58 0° 172° (S) 3,310 8.6 -7.2°
